Location: Tamazert
(32.6352°N, 5.2072°W)
Time: 15:45:27
(UTC+00:00)

Resurs 1-4 Rocket - Pass Details

Date: 22 May 2022
Orbit: 800 x 813 km, 98.7° (Epoch: 28 June)

Event Time Altitude Azimuth Distance (km) Brightness Sun altitude
Rises 03:05:15 0° 352° (N) 3,313 5.8 -23.6°
Reaches altitude 10° 03:08:20 10° 333° (NNW) 2,380 4.8 -23.1°
Maximum altitude 03:11:38 17° 294° (WNW) 1,930 3.9 -22.6°
Enters shadow 03:11:40 17° 293° (WNW) 1,930 3.9 -22.6°
